Flag for Slovenia Weather past 2 weeks in Ljubljana, Slovenia

Now
55 °F

Low clouds.


Feels Like: 55 °F
Forecast: 60 / 72 °F
Wind: No wind

Location: Ljubljana / Bezigrad

Current Time: Sep 3, 2014 at 7:40:19 AM

Latest Report: Sep 3, 2014 at 7:00 AM


Visibility: 2 mi

Pressure: 29.97 "Hg

Humidity: 98%

Dew point: 54 °F

Location of LjubljanaLocation

Historic Weather in Ljubljana — Graph

°F

Ljubljana temperature yesterday

Maximum temperature yesterday: 57 °F (at 1:00 PM)
Minimum temperature yesterday: 55 °F (at 1:00 AM)
Average temperature yesterday: 56 °F

Past Weeks' High & Low Weather Summary

 TemperatureHumidityPressure
High80 °F (Aug 27, 5:00 PM)98% (Aug 21, 3:00 AM)30.17 "Hg (Aug 21, 3:00 AM)
Low52 °F (Aug 29, 7:00 AM)45% (Aug 28, 3:00 PM)29.74 "Hg (Sep 1, 12:00 AM)
Average63 °F82%29.98 "Hg
* Reported Aug 19 6:00 AM — Sep 3 6:00 AM, Ljubljana, Weather by CustomWeather, © 2014

Note: Actual official high and low records may vary slightly from our data, if they occured in-between our weather recording intervals... More about our weather records

Advertising

Ljubljana weather history for previous 24 hours

 ConditionsComfort  
Time TempWeatherWind HumidityBarometerVisibility
6:00 AM
Sep 3
55 °FLow clouds.1 mph97%29.97 "Hg2 mi
5:00 AM55 °FCool.No wind96%29.97 "HgN/A
4:00 AM55 °FCool.No wind97%29.98 "HgN/A
3:00 AM56 °FCool.No wind98%29.98 "HgN/A
2:00 AM55 °FCool.No wind96%29.98 "HgN/A
1:00 AM55 °FCool.No wind97%29.99 "HgN/A
12:00 AM55 °FCool.No wind96%29.99 "HgN/A
11:00 PM
Sep 2
55 °FCool.1 mph97%30.00 "HgN/A
10:00 PM55 °FRain. Overcast.1 mph96%29.99 "Hg6 mi
9:00 PM55 °FCool.1 mph94%29.99 "HgN/A
8:00 PM55 °FOvercast.No wind94%29.98 "Hg7 mi
7:00 PM56 °FRain. Overcast.No wind94%29.97 "Hg7 mi
6:00 PM56 °FLight rain. Overcast.1 mph92%29.97 "Hg11 mi
5:00 PM56 °FLight rain. Overcast.1 mph91%29.96 "Hg14 mi
4:00 PM56 °FLight rain. Overcast.No wind89%29.96 "Hg11 mi
3:00 PM56 °FRain. Low clouds.1 mph87%29.96 "Hg7 mi
2:00 PM57 °FRain. Low clouds.1 mph93%29.96 "Hg7 mi
1:00 PM57 °FRain. Low clouds.No wind85%29.95 "Hg9 mi
12:00 PM57 °FRain. Low clouds.1 mph93%29.96 "Hg6 mi
11:00 AM57 °FRain. Low clouds.2 mph93%29.96 "Hg6 mi
10:00 AM57 °FRain. Low clouds.2 mph94%29.96 "Hg9 mi
9:00 AM56 °FLight rain. Low clouds.No wind94%29.93 "Hg6 mi
8:00 AM56 °FLight rain. Overcast.No wind95%29.92 "Hg7 mi
7:00 AM56 °FRain. Overcast.No wind95%29.91 "Hg7 mi
Weather by CustomWeather, © 2014

See weather overviewHow to use our weather pages